Regional Weather Roundup
Issued by NWS

Home | Current Version | Previous Version | Graphics & Text | Print | Product List | Glossary On
Versions: 1 2 3 4 5 6 7 8 9 10 11 12 13 14 15 16 17 18 19 20 21 22 23 24 25 26 27 28 29 30 31 32 33 34 35 36 37 38 39 40 41 42 43 44 45 46 47 48 49 50
000
ASUS45 KPSR 281010
RWRAZ

ARIZONA HOURLY REGIONAL WEATHER ROUNDUP
NATIONAL WEATHER SERVICE PHOENIX AZ
300 AM MST THU MAY 28 2015

NOTE: FAIR INDICATES FEW OR NO CLOUDS BELOW 12,000 FEET WITH NO
SIGNIFICANT WEATHER AND/OR OBSTRUCTIONS TO VISIBILITY.

AZZ001>003-036-281100-
NORTHWEST ARIZONA

CITY           SKY/WX    TMP DP  RH WIND       PRES   REMARKS
BULLHEAD CITY  CLEAR     75  25  15 CALM      29.85S
KINGMAN        CLEAR     60  20  21 SE14      30.01S
$$

AZZ004>008-015-016-018-281100-
NORTH CENTRAL ARIZONA

CITY           SKY/WX    TMP DP  RH WIND       PRES   REMARKS
GRAND CANYON   CLEAR     37  32  82 CALM      30.19S
WILLIAMS       CLEAR     41  30  65 S9        30.25S
PRESCOTT       CLEAR     47  30  51 S6        30.11R
FLAGSTAFF      CLEAR     38  30  73 CALM      30.20F
PAYSON         CLEAR     52  27  37 CALM      30.12F
PAGE           CLEAR     64  41  42 CALM      30.05R
$$

AZZ009>014-017-281100-
NORTHEAST ARIZONA

CITY           SKY/WX    TMP DP  RH WIND       PRES   REMARKS
WINSLOW        CLEAR     47  29  49 SE6       30.10R
SAINT JOHNS    CLEAR     51  22  31 S8        30.13F
WINDOW ROCK    CLEAR     46  30  53 CALM      30.18S
SHOW LOW       CLEAR     43  19  39 S5        30.19S
$$

AZZ023-281100-
GREATER PHOENIX AREA

CITY           SKY/WX    TMP DP  RH WIND       PRES   REMARKS
PHOENIX        CLEAR     76  41  28 E6        29.87S
LUKE AFB       CLEAR     68  42  39 CALM      29.87S
DEER VALLEY    CLEAR     69  32  25 CALM      29.89S
SCOTTSDALE     CLEAR     70  38  31 CALM      29.90S
MESA-GATEWAY   CLEAR     64  41  42 SE7       29.91S
$$

AZZ027-028-281100-
SOUTHWEST MARICOPA COUNTY AND PINAL COUNTY

CITY           SKY/WX    TMP DP  RH WIND       PRES   REMARKS
CASA GRANDE    CLEAR     70  21  16 SW7       29.90S
GILA BEND      FAIR      71  35  26 S7        29.86F
$$

AZZ503-504-507>509-281100-
SOUTHEAST ARIZONA

CITY           SKY/WX    TMP DP  RH WIND       PRES   REMARKS
TUCSON         CLEAR     67  29  24 SE5       30.00R
DAVIS-MONTHAN  CLEAR     64  27  24 SE8       29.98R
NOGALES        CLEAR     57  28  33 NE5       30.05S
SIERRA VISTA   CLEAR     62  21  20 W13       30.09F
DOUGLAS        CLEAR     51  17  26 NE8       30.07S
SAFFORD        CLEAR     66  24  20 NW7       29.97R
$$

AZZ020-021-025-026-031-281100-
SOUTHWEST ARIZONA

CITY           SKY/WX    TMP DP  RH WIND       PRES   REMARKS
YUMA           CLEAR     73  44  35 S5        29.83F
$$

CAZ031-033-041-043-047-048-061-281100-
SOUTHERN CALIFORNIA

CITY           SKY/WX    TMP DP  RH WIND       PRES   REMARKS
DOWNTOWN L.A.  CLEAR     58  54  86 CALM      29.96S
L.A. AIRPORT   MOCLDY    57  55  94 W6        29.97S
SAN DIEGO      CLOUDY    62  54  74 CALM      29.97F
BURBANK        CLEAR     58  51  78 CALM      29.95F
ONTARIO        CLEAR     57  53  86 W5        29.95F
RIVERSIDE      CLEAR     57  53  86 CALM      29.95F
PALM SPRINGS   CLEAR     72  52  49 CALM      29.85F
EL CENTRO NAS  CLEAR     68  48  48 E8        29.82S
IMPERIAL       CLEAR     72  46  39 S5        29.81R
BLYTHE         CLEAR     74  41  30 S6        29.83S
$$

NVZ020-UTZ003-281100-
SOUTHERN NEVADA-UTAH

CITY           SKY/WX    TMP DP  RH WIND       PRES   REMARKS
LAS VEGAS      CLEAR     76  33  21 CALM      29.86R
SALT LAKE CITY PTCLDY    51  47  86 SE9       30.08F
$$

NMZ009-TXZ055-281100-
NEW MEXICO-WEST TEXAS

CITY           SKY/WX    TMP DP  RH WIND       PRES   REMARKS
ALBUQUERQUE    CLOUDY    55  34  45 SE6       30.09R
EL PASO        MOCLDY    73  50  44 S6        29.99S
$$


........................KEY........................
SKY/WX - SKY CONDITION/WEATHER
TMP    - TEMPERATURE IN FAHRENHEIT
DP     - DEW POINT IN FAHRENHEIT
RH     - RELATIVE HUMIDITY IN PERCENT
WIND   - DIRECTION AND SPEED IN MILES PER HOUR (MPH)
VRB    - VARIABLE WIND DIRECTION
PRES   - MEAN SEA LEVEL PRESSURE IN INCHES OF MERCURY
         F - FALLING PRESSURE   R - RISING PRESSURE
         S - STEADY PRESSURE
VSB    - VISIBILITY IN MILES
HX     - HEAT INDEX IN FAHRENHEIT
WCI    - WIND CHILL INDEX IN FAHRENHEIT
TC     - TEMPERATURE IN CELSIUS WHICH IS ALSO KNOWN AS
         TEMPERATURE IN CENTIGRADE
AFB    - AIR FORCE BASE
         LUKE AFB IS LUKE AIR FORCE BASE
         DAVIS-MONTHAN IS DAVIS-MONTHAN AIR FORCE BASE
NAS    - NAVAL AIR STATION
         EL CENTRO NAS IS EL CENTRO NAVAL AIR STATION
N/A    - NOT AVAILABLE



USA.gov is the U.S. government's official web portal to all federal, state and local government web resources and services.